Date String (YYYY-MM-DD hh:mm:ss) UTC,Instrument flags,absolute air pressure of the measurement (hPa),sample flow rate (lpm),inlet stack bypass flow (lpm),air temperature of the measurement (°C),ambient temperature measured by the external sensor (°C),aerosol sample conditioner tube jacket temperature (°C),OPC LED temperature (°C),internal box temperature (°C),relative humidity of the measurement (%),span deviation,mass concentration of particles derived from Lorenz-Mie calculation of OPC scattering (μg/m³),mass concentration of particles derived from Lorenz-Mie calculation of OPC scattering (μg/m³),mass concentration of particles derived from Lorenz-Mie calculation of OPC scattering (μg/m³)
DateTimeUTC,F1_M11,P_M11,Q1_M11,Q2_M11,T1_M11,T2_M11,T3_M11,T4_M11,T5_M11,U1_M11,ZSPAN_M11,X0_M11,X2_M11,X1_M11
2023-08-08 07:00:00,SystemResetWarning,0833.8,5.00,000.00,029.4,027.9,000.0,038.1,031.0,26.0,-000.8,0015.88,0006.22,0005.26
2023-08-08 07:01:00,SystemResetWarning,0833.8,5.00,000.00,029.4,028.0,000.0,038.1,031.0,25.9,-000.5,0016.57,0006.18,0005.23
2023-08-08 07:02:00,SystemResetWarning,0833.8,5.01,000.00,029.4,028.0,000.0,038.1,031.1,25.8,-000.7,0015.62,0006.19,0005.22
2023-08-08 07:03:00,SystemResetWarning,0833.8,5.01,000.00,029.5,028.1,000.0,038.1,031.1,25.6,-000.6,0015.25,0006.15,0005.21
2023-08-08 07:04:00,SystemResetWarning,0833.8,5.00,000.00,029.5,028.1,000.0,038.1,031.1,25.4,0000.0,0015.20,0006.15,0005.22
2023-08-08 07:05:00,SystemResetWarning,0833.8,5.00,000.00,029.5,028.2,000.0,038.1,031.1,25.5,0000.6,0015.33,0006.15,0005.22
2023-08-08 07:06:00,SystemResetWarning,0833.8,4.99,000.00,029.5,028.2,000.0,038.1,031.2,25.6,0000.6,0015.28,0006.15,0005.23
2023-08-08 07:07:00,SystemResetWarning,0833.8,4.99,000.00,029.5,028.3,000.0,038.1,031.1,25.4,0000.5,0015.42,0006.12,0005.21
2023-08-08 07:08:00,SystemResetWarning,0833.7,5.00,000.00,029.6,028.3,000.0,038.2,031.2,25.4,0000.0,0014.43,0006.05,0005.18
2023-08-08 07:09:00,SystemResetWarning,0833.7,5.01,000.00,029.6,028.3,000.0,038.2,031.2,25.4,0000.0,0013.95,0006.01,0005.14
2023-08-08 07:10:00,SystemResetWarning,0833.8,5.00,000.00,029.6,028.4,000.0,038.2,031.2,25.4,0000.0,0014.03,0005.96,0005.10
2023-08-08 07:11:00,SystemResetWarning,0833.8,5.00,000.00,029.6,028.4,000.0,038.2,031.2,25.2,0000.0,0013.31,0005.88,0005.06
2023-08-08 07:12:00,SystemResetWarning,0833.7,5.01,000.00,029.6,028.4,000.0,038.2,031.3,25.0,0000.0,0013.12,0005.81,0005.03
2023-08-08 07:13:00,SystemResetWarning,0833.7,5.00,000.00,029.7,028.4,000.0,038.2,031.3,25.4,0000.0,0013.56,0005.71,0004.98
2023-08-08 07:14:00,SystemResetWarning,0833.8,4.99,000.00,029.7,028.5,000.0,038.3,031.3,25.1,0000.0,0014.24,0005.61,0004.93
2023-08-08 07:15:00,SystemResetWarning,0833.8,4.99,000.00,029.7,028.5,000.0,038.3,031.3,24.6,0000.0,0014.31,0005.54,0004.89
2023-08-08 07:16:00,SystemResetWarning,0833.8,5.00,000.00,029.7,028.5,000.0,038.3,031.3,24.6,0000.0,0013.36,0005.47,0004.83
2023-08-08 07:17:00,SystemResetWarning,0833.8,5.02,000.00,029.7,028.5,000.0,038.3,031.4,24.6,0000.0,0013.03,0005.42,0004.80
2023-08-08 07:18:00,SystemResetWarning,0833.8,4.99,000.00,029.7,028.5,000.0,038.3,031.4,24.6,0000.0,0012.63,0005.40,0004.77
2023-08-08 07:19:00,SystemResetWarning,0833.7,4.99,000.00,029.8,028.5,000.0,038.4,031.4,24.6,0000.0,0012.68,0005.40,0004.75
2023-08-08 07:20:00,SystemResetWarning,0833.8,4.99,000.00,029.8,028.6,000.0,038.4,031.4,24.6,0001.2,0012.77,0005.38,0004.74
2023-08-08 07:21:00,SystemResetWarning,0833.8,5.00,000.00,029.8,028.6,000.0,038.4,031.4,24.6,0001.2,0012.26,0005.37,0004.73
2023-08-08 07:22:00,SystemResetWarning,0833.8,5.01,000.00,029.8,028.6,000.0,038.4,031.4,24.4,0001.7,0011.76,0005.39,0004.71
2023-08-08 07:23:00,SystemResetWarning,0833.8,5.01,000.00,029.8,028.6,000.0,038.4,031.4,24.2,0000.0,0012.04,0005.37,0004.69
2023-08-08 07:24:00,SystemResetWarning,0833.8,5.00,000.00,029.8,028.6,000.0,038.4,031.4,24.2,0000.5,0011.85,0005.40,0004.68
2023-08-08 07:25:00,SystemResetWarning,0833.8,4.99,000.00,029.9,028.6,000.0,038.4,031.4,24.5,0001.5,0011.01,0005.45,0004.68
2023-08-08 07:26:00,SystemResetWarning,0833.8,4.99,000.00,029.9,028.6,000.0,038.5,031.5,24.8,0002.1,0011.20,0005.47,0004.67
2023-08-08 07:27:00,SystemResetWarning,0833.8,5.01,000.00,029.9,028.6,000.0,038.5,031.5,24.6,0001.4,0011.82,0005.48,0004.65
2023-08-08 07:28:00,SystemResetWarning,0833.7,5.01,000.00,029.9,028.6,000.0,038.5,031.5,24.5,0000.0,0011.79,0005.45,0004.63
2023-08-08 07:29:00,SystemResetWarning,0833.7,5.01,000.00,029.9,028.7,000.0,038.5,031.5,24.2,0000.3,0012.04,0005.46,0004.63
2023-08-08 07:30:00,SystemResetWarning,0833.7,4.99,000.00,029.9,028.7,000.0,038.5,031.5,24.2,0003.7,0012.26,0005.45,0004.64
2023-08-08 07:31:00,SystemResetWarning,0833.7,4.98,000.00,029.9,028.3,000.0,038.5,031.5,25.0,0001.0,0012.19,0005.46,0004.63
2023-08-08 07:32:00,SystemResetWarning,0833.6,5.00,000.00,029.9,026.3,000.0,038.4,031.3,25.5,0001.6,0012.29,0005.45,0004.61
2023-08-08 07:33:00,SystemResetWarning,0833.7,5.00,000.00,029.8,025.2,000.0,038.2,031.0,25.3,0000.7,0012.21,0005.43,0004.61
2023-08-08 07:34:00,SystemResetWarning,0833.7,5.01,000.00,029.7,025.2,000.0,038.2,030.7,24.6,0002.7,0011.44,0005.47,0004.61
2023-08-08 07:35:00,SystemResetWarning,0833.7,5.01,000.00,029.5,025.5,000.0,038.2,030.6,24.5,0001.0,0011.62,0005.45,0004.60
2023-08-08 07:36:00,SystemResetWarning,0833.7,5.01,000.00,029.5,025.9,000.0,038.2,030.7,24.3,0000.2,0011.58,0005.41,0004.59
2023-08-08 07:37:00,SystemResetWarning,0833.7,5.00,000.00,029.4,026.3,000.0,038.2,030.8,24.5,0000.0,0011.14,0005.39,0004.59
2023-08-08 07:38:00,SystemResetWarning,0833.7,5.00,000.00,029.4,026.7,000.0,038.2,030.9,24.5,0000.0,0010.43,0005.35,0004.59
2023-08-08 07:39:00,SystemResetWarning,0833.7,5.00,000.00,029.4,027.0,000.0,038.2,030.9,24.5,0000.0,0010.46,0005.35,0004.59
2023-08-08 07:40:00,SystemResetWarning,0833.7,5.00,000.00,029.4,027.2,000.0,038.2,030.9,24.5,0000.0,0010.22,0005.32,0004.57
2023-08-08 07:41:00,SystemResetWarning,0833.7,5.00,000.00,029.4,027.4,000.0,038.2,031.0,24.4,0000.0,0010.23,0005.33,0004.57
2023-08-08 07:42:00,SystemResetWarning,0833.7,5.00,000.00,029.4,027.6,000.0,038.2,031.0,24.3,0000.0,0010.63,0005.35,0004.56
2023-08-08 07:43:00,SystemResetWarning,0833.7,5.00,000.00,029.4,027.7,000.0,038.2,031.0,24.2,0000.0,0010.69,0005.38,0004.57
2023-08-08 07:44:00,SystemResetWarning,0833.7,5.00,000.00,029.4,027.8,000.0,038.1,031.0,24.2,0000.0,0010.79,0005.39,0004.57
2023-08-08 07:45:00,SystemResetWarning,0833.7,5.00,000.00,029.5,027.9,000.0,038.1,031.0,24.1,0000.0,0010.54,0005.37,0004.57
2023-08-08 07:46:00,SystemResetWarning,0833.6,5.00,000.00,029.5,027.9,000.0,038.1,031.1,24.3,0000.0,0010.07,0005.36,0004.56
2023-08-08 07:47:00,SystemResetWarning,0833.7,5.00,000.00,029.5,028.0,000.0,038.1,031.0,24.4,0000.0,0010.15,0005.36,0004.55
2023-08-08 07:48:00,SystemResetWarning,0833.7,4.99,000.00,029.5,028.0,000.0,038.2,031.1,24.3,0000.0,0010.27,0005.38,0004.54
2023-08-08 07:49:00,SystemResetWarning,0833.7,5.00,000.00,029.5,028.1,000.0,038.1,031.1,24.4,0000.0,0010.24,0005.39,0004.54
2023-08-08 07:50:00,SystemResetWarning,0833.7,5.00,000.00,029.5,028.1,000.0,038.2,031.1,24.9,0000.0,0010.24,0005.41,0004.55
2023-08-08 07:51:00,SystemResetWarning,0833.7,5.00,000.00,029.5,028.1,000.0,038.2,031.1,25.7,0000.0,0010.56,0005.43,0004.57
2023-08-08 07:52:00,SystemResetWarning,0833.7,5.01,000.00,029.6,028.1,000.0,038.2,031.1,26.4,0000.0,0010.34,0005.43,0004.57
2023-08-08 07:53:00,SystemResetWarning,0833.7,4.99,000.00,029.6,028.2,000.0,038.2,031.2,27.2,0000.0,0010.58,0005.43,0004.57
2023-08-08 07:54:00,SystemResetWarning,0833.7,4.99,000.00,029.6,028.2,000.0,038.2,031.2,27.4,-000.1,0010.49,0005.44,0004.57
2023-08-08 07:55:00,SystemResetWarning,0833.6,5.00,000.00,029.6,028.2,000.0,038.2,031.2,27.5,0000.0,0010.44,0005.46,0004.58
2023-08-08 07:56:00,SystemResetWarning,0833.6,5.00,000.00,029.6,028.3,000.0,038.2,031.2,27.3,0000.0,0010.41,0005.44,0004.59
2023-08-08 07:57:00,SystemResetWarning,0833.6,5.01,000.00,029.6,028.3,000.0,038.2,031.2,26.8,-000.1,0010.52,0005.45,0004.60
2023-08-08 07:58:00,SystemResetWarning,0833.7,5.00,000.00,029.6,028.3,000.0,038.2,031.2,26.6,-000.1,0010.78,0005.47,0004.61
2023-08-08 07:59:00,SystemResetWarning,0833.7,5.00,000.00,029.7,028.3,000.0,038.3,031.3,25.7,-000.2,0010.60,0005.42,0004.61
